LEGION 1

Last updated on Fri Jul 11 2025 00:02:29 GMT+0000 (Coordinated Universal Time)

1 59625U 24081A 25191.58087254 .00002641 00000+0 13726-3 0 9993 2 59625 97.5363 267.2946 0002490 315.0702 45.0329 15.16962480 65759
UTC large
Height (km)
Speed (km/s)
/
Latitude / Longitude
Inclination (degrees)
Orbital Period (minutes)
Azimuth
Elevation
Range (km)
Doppler Factor

Next 0 passes for location: London (51.5072 / 0.1276)

Sorry there are no passes over London.